User: anonymous   Login
Location: Hepcat Sky Observatory
(29.9800°N, 95.6500°W)
Time: 20:08:22
(UTC-05:00)
Language:

ALOS - Orbit

View from above orbital plane
View from above orbital plane
View from above satellite
View from above satellite

Ground track
Ground track

The orbit data is extracted from the following two-line orbital elements,

1 28931U 06002A   14303.54232847  .00001923  00000-0  39751-3 0   902
2 28931 097.9640 356.7756 0002483 093.8544 266.2937 14.61405776467080
Epoch (UTC): 30 October 2014 13:00:57
Eccentricity: 0.0002483
inclination: 97.9640°
perigee height: 687 km
apogee height: 690 km
right ascension of ascending node: 356.7756°
argument of perigee: 93.8544°
revolutions per day: 14.61405776
mean anomaly at epoch: 266.2937°
orbit number at epoch: 46708

The dashed part of the orbit path shows where the satellite is in the earth's shadow,  

DLR